www.pogodaiklimat.ru

Погода и климат >> Архив погоды >> Гондурас >> Choluteca


ПОГОДА в Choluteca

  • Прогноз погоды в Choluteca
  • Монитор погоды в Choluteca
  • Климат города

АРХИВ ПОГОДЫ в Choluteca

Время (UTC), дата Ветер
(напр.,м/с)
 
Видим.   Явления Облачность Т
(С)
Тd
(С)
f
(%)
Тe
(С)
Тes
(С)
Комфортность P
(гПа)
Po
(гПа)
Тmin
(С)
Tmax
(С)
R
(мм)
S
(см)
12 21.03 СВ 4 28 км мгла 3/1 900 м
[Sc Ci fib]
+26.2 +18.9 64 +31 +31 очень
душно
1013.2 1007.5 +26.2 +37.0
15 21.03 С 9 28 км мгла {туман} 3/1 960 м
[Cu hum Ci fib]
+31.1 +16.7 42 +34 +35 душно 1014.7 1009.0
18 21.03 С 8 28 км мгла {туман} 4/4 1020 м
[Cu hum]
+36.2 +17.0 32 +39 +41 очень
душно
1012.2 1006.5 +26.2 +36.2
21 21.03 СВ 3 28 км мгла {туман} 6/5 1020 м
[Cu med, cong Ci fib]
+39.2 +18.3 30 +43 +47 опасность
перегрева
1008.5 1002.8
00 22.03 25 км мгла {туман} н/о +32.4 +21.1 51 +40 +40 очень
душно
1010.0 1004.3 +26.2 +38.6
12 22.03 С 7 20 км мгла 9/1 900 м
[Sc Cs]
+26.6 +18.7 62 +32 +32 очень
душно
1012.7 1007.0 +26.6 +38.6
15 22.03 СВ 8 20 км мгла {туман} 9/3 1020 м
[Cu hum Cs]
+30.4 +17.5 46 +34 +36 очень
душно
1013.9 1008.2
18 22.03 СВ 9 20 км мгла {туман} 9/3 1020 м
[Cu hum Cs]
+35.2 +16.2 32 +37 +39 очень
душно
1012.2 1006.5 +26.6 +35.2
21 22.03 СВ 8 20 км мгла {туман} 9/1 1020 м
[Cu hum Cs]
+36.6 +14.7 27 +38 +39 очень
душно
1009.2 1003.5
00 23.03 С 7 20 км мгла {туман} 5/1 1020 м
[Cu hum Ci fib]
+34.0 +21.4 48 +42 +42 опасность
перегрева
1010.4 1004.7 +26.6 +37.4
12 23.03 СВ 4 25 км мгла {туман} 3/1 900 м
[Sc Ci fib]
+26.2 +17.6 59 +30 +30 душно 1013.0 1007.3 +26.2 +37.4
15 23.03 С 9 28 км мгла {туман} 3/3 960 м
[Cu hum Ci fib]
+29.6 +16.5 45 +33 +34 душно 1015.2 1009.5
18 23.03 С 9 28 км мгла {туман} 4/1 1020 м
[Cu hum Ac trans Ci fib]
+35.1 +16.7 34 +38 +39 очень
душно
1013.1 1007.4 +26.2 +35.1
21 23.03 С 6 28 км мгла {туман} 4/4 1020 м
[Cu hum]
+38.6 +14.8 25 +40 +42 очень
душно
1009.3 1003.6
00 24.03 ЮЗ 2 28 км мгла {туман} 6/4 960 м
[Cu hum Ac trans Ci fib]
+33.6 +17.1 37 +37 +37 очень
душно
1009.4 1003.7 +26.2 +38.8
12 24.03 С 9 20 км мгла 5/1 900 м
[Sc Ci fib]
+25.8 +19.3 67 +31 +31 очень
душно
1014.4 1008.5 +25.8 +38.8
15 24.03 С 15 10 км мгла {туман} ясно +29.0 +18.2 52 +34 +34 очень
душно
1015.7 1010.0
18 24.03 СВ 10 20 км мгла {туман} ясно +36.0 +17.8 34 +39 +40 очень
душно
1013.7 1008.0 +25.8 +36.0
21 24.03 СЗ 3 10 км мгла {туман} 1/1 1020 м
[Cu hum]
+38.6 +15.6 26 +40 +47 очень
душно
1010.2 1004.5
00 25.03 Ю 7 10 км мгла {туман} 3/3 1020 м
[Cu hum]
+33.2 +20.9 49 +41 +41 опасность
перегрева
1011.4 1005.7 +25.8 +39.0
12 25.03 С 2 25 км мгла 1/1 900 м
[Sc Ci fib]
+25.6 +17.7 62 +30 +30 душно 1013.0 1007.3 +25.6 +39.0
15 25.03 С 5 15 км мгла {туман} ясно +30.8 +16.9 43 +34 +40 очень
душно
1014.6 1008.9
18 25.03 СВ 3 15 км мгла {туман} 3/3 1020 м
[Cu hum]
+36.0 +23.2 48 +38 +50 очень
душно
1011.9 1006.2 +25.6 +36.0
21 25.03 ЮЗ 2 15 км мгла {туман} 3/3 1020 м
[Cu hum]
+38.6 +26.4 50 +54 +61 опасность
перегрева
1007.6 1001.9
00 26.03 ЮЗ 3 15 км мгла {туман} 3/3 960 м
[Cu hum]
+31.8 +16.2 39 +35 +35 очень
душно
1008.6 1002.9 +25.6 +39.6
12 26.03 штиль 0 20 км мгла 9/1 900 м
[Sc Ac trans Ci fib]
+23.8 +21.2 85 +30 +30 очень
душно
1012.2 1006.5 +23.8 +39.6
15 26.03 СВ 7 20 км мгла {туман} 3/3 1020 м
[]
+31.4 +19.7 50 +37 +40 очень
душно
1013.7 1008.0
18 26.03 штиль 0 10 км мгла {туман} 6/6 1020 м
[Cu med, cong]
+36.2 +20.0 39 +42 +54 опасность
перегрева
1011.4 1005.7 +23.8 +36.2
21 26.03 З 5 20 км мгла {туман} 8/4 1020 м
[Cu med, cong Ac cuf]
+37.4 +24.0 46 +48 +50 опасность
перегрева
1008.4 1002.7
00 27.03 Ю 4 20 км мгла {туман} 5/3 900 м
[Cu hum Ac trans]
+31.2 +21.1 55 +39 +39 очень
душно
1009.4 1003.7 +23.8 +38.0
12 27.03 СВ 3 15 км мгла 6/1 900 м
[Sc Ac trans Ci fib]
+26.0 +17.7 60 +30 +30 душно 1011.9 +26.0 +39.6
15 27.03 С 3 25 км мгла {туман} 3/3 960 м
[Cu hum Ci fib]
+31.1 +17.9 45 +35 +42 очень
душно
1012.7 1007.0
21 27.03 З 5 28 км мгла {туман} 5/5 1020 м
[Cu med, cong]
+37.2 +18.7 34 +41 +44 опасность
перегрева
1007.2 1001.5
00 28.03 З 2 25 км мгла {туман} 1/1 960 м
[Cu hum]
+30.0 +21.8 62 +39 +39 очень
душно
1007.9 1002.2 +26.0 +37.6

 

Местоположение метеостанции Choluteca (Гондурас): широта 13.30 долгота -87.18 высота над уровнем моря 48 м.

В архиве по умолчанию представлена погода в Choluteca за последнюю неделю. Архивные данные за месяц целиком и за предыдущие месяцы, начиная с января 2011 года, Вы можете получить, выбрав интересующий диапазон дат из раскрывающегося списка и нажав кнопку "Ввод!".

Внимание! Время в таблицах - всемирное. Для получения местного времени необходимо прибавить поправку, которая в Choluteca равна -6 ч.

Смотрите также архив погоды в соседних городах и на ближайших метеорологических станциях:

Погода в Amapala (Гондурас) (51 км)
Погода в Chinandega (Никарагуа) (75 км)
Погода в Tegucigalpa (Гондурас) (83 км)
Погода в Jinotega (Никарагуа) (132 км)
Погода в La Esperanza (Гондурас) (155 км)
Погода в Managua (Никарагуа) (168 км)
Погода в Yoro (Гондурас) (208 км)
Погода в Catacamas (Гондурас) (223 км)
Погода в Juigalpa (Никарагуа) (237 км)
Погода в Santa Rosa De Copan (Гондурас) (239 км)

Пояснения к столбцам:

Ветер - указаны скорость ветра в м/с - средняя за 10 мин, порывы в срок и между сроками (в фигурных скобках) и направление, откуда дует ветер: С - северный, СВ - северо-восточный, В - восточный, ЮВ - юго-восточный, Ю - южный, ЮЗ - юго-западный, З - западный, СЗ - северо-западный.
Видимость - горизонтальная дальность видимости в метрах или километрах. При видимости от 1 до 10 км при отсутствии осадков обычно наблюдается дымка, при ухудшении видимости до 1 км и менее - туман. В сухую погоду видимость может ухудшаться дымом, пылью или мглою.
Явления - указаны атмосферные явления, наблюдавшиеся в срок или в последний час перед сроком; фигурными скобками обозначены явления, наблюдавшиеся между сроками (за 1-3 часа до срока); квадратными скобками обозначены град или гололедные отложения с указанием их диаметра в мм.
Облачность - указаны через наклонную черту общая и нижняя облачность в баллах и высота нижней границы облаков в метрах; квадратными скобками обозначены формы облаков: Ci - перистые, Cs - перисто-слоистые, Cc - перисто-кучевые, Ac - высококучевые, As - высокослоистые, Sc - слоисто-кучевые, Ns - слоисто-дождевые, Cu - кучевые, Cb - кучево-дождевые. Подробнее классификацию облаков см. в Атласе облаков (PDF).
T - Температура воздуха - температура, измеренная на высоте 2 м над землей.
Td - Температура точки росы - температура, при понижении до которой содержащийся в воздухе водяной пар достигнет насыщения.
f - Относительная влажность воздуха - влажноcть воздуха, измеренная на высоте 2 м над землей.
Te - Эффективная температура - температура, которую ощущает одетый по сезону человек в тени. Характеристика душности погоды. При расчете учитывается влияние влажности воздуха и скорости ветра на теплоощущения человека.
Tes - Эффективная температура на солнце - температура, которую ощущает человек, с поправкой на солнечный нагрев. Характеристика знойности погоды. Зависит от высоты солнца над горизонтом, облачности и скорости ветра. Ночью, в пасмурную погоду, а также при ветре 12 м/с и более поправка равна нулю.
P - Атмосферное давление - приведенное к уровню моря атмосферное давление.
Po - Атмосферное давление - измеренное на уровне метеостанции атмосферное давление.
Tmin - Минимальная температура - минимум температуры воздуха на высоте 2 м над землей.
Tmax - Максимальная температура - максимум температуры воздуха на высоте 2 м над землей.
R - Количество осадков - Количество выпавших осадков, мм. При наведении курсора мыши на число - период времени, за который выпало указанное количество осадков.
S - Снежный покров - Высота снежного покрова, см. При наведении курсора мыши на число - состояние снежного покрова и степень покрытия местности в баллах.